Total_Precipitation_Accumulation
0.23 0.20 0.24 0.11 0.10 0.13 0.09 0.11 0.06 0.03 0.04 0.01 0.00 0.00 0.00 0.00 0.00 0.00 0.00 0.00 0.00 0.00 0.02 0.06 0.05 0.01 0.00 0.00 0.03 0.08 0.04 0.00 0.00 0.00 0.00 0.00 0.00 0.00 0.00 0.00 0.00 0.00 0.00
0.33 0.40 0.26 0.18 0.13 0.09 0.11 0.20 0.17 0.11 0.08 0.10 0.07 0.05 0.01 0.00 0.00 0.00 0.00 0.00 0.00 0.00 0.00 0.07 0.12 0.11 0.06 0.02 0.01 0.05 0.08 0.04 0.00 0.00 0.00 0.00 0.00 0.01 0.01 0.01 0.01 0.01 0.00
0.35 0.33 0.67 0.44 0.14 0.12 0.16 0.18 0.19 0.21 0.20 0.16 0.08 0.09 0.14 0.09 0.02 0.00 0.00 0.00 0.00 0.00 0.00 0.00 0.02 0.09 0.15 0.16 0.09 0.04 0.04 0.03 0.02 0.01 0.00 0.00 0.00 0.00 0.00 0.01 0.02 0.01 0.01
0.07 0.25 0.28 0.59 0.54 0.37 0.29 0.22 0.21 0.23 0.22 0.22 0.20 0.14 0.13 0.14 0.11 0.05 0.02 0.00 0.00 0.00 0.00 0.00 0.00 0.01 0.06 0.07 0.11 0.11 0.14 0.14 0.07 0.04 0.02 0.01 0.00 0.00 0.00 0.00 0.00 0.01 0.02
0.04 0.06 0.14 0.18 0.30 0.32 0.30 0.31 0.29 0.23 0.21 0.16 0.11 0.11 0.13 0.14 0.08 0.06 0.03 0.02 0.01 0.00 0.00 0.00 0.00 0.00 0.00 0.02 0.03 0.10 0.12 0.12 0.11 0.07 0.03 0.02 0.00 0.00 0.00 0.00 0.00 0.00 0.02
0.17 0.12 0.14 0.19 0.14 0.15 0.16 0.13 0.15 0.16 0.14 0.09 0.08 0.06 0.05 0.05 0.04 0.04 0.03 0.02 0.01 0.01 0.00 0.00 0.00 0.00 0.00 0.00 0.02 0.06 0.11 0.09 0.12 0.07 0.03 0.02 0.01 0.00 0.00 0.00 0.00 0.00 0.00
0.23 0.21 0.15 0.13 0.14 0.08 0.06 0.08 0.08 0.07 0.06 0.07 0.13 0.10 0.05 0.03 0.02 0.01 0.01 0.00 0.00 0.00 0.00 0.00 0.00 0.00 0.00 0.00 0.01 0.06 0.08 0.05 0.09 0.09 0.08 0.06 0.03 0.00 0.00 0.00 0.00 0.00 0.00
0.49 0.28 0.17 0.14 0.12 0.10 0.05 0.05 0.08 0.09 0.06 0.07 0.08 0.10 0.06 0.04 0.03 0.01 0.00 0.00 0.00 0.00 0.00 0.00 0.00 0.00 0.00 0.00 0.00 0.02 0.05 0.06 0.07 0.15 0.11 0.06 0.04 0.00 0.00 0.00 0.00 0.01 0.02
0.72 0.65 0.67 0.49 0.23 0.12 0.10 0.08 0.15 0.16 0.16 0.12 0.13 0.16 0.09 0.03 0.02 0.01 0.01 0.00 0.00 0.00 0.00 0.00 0.00 0.00 0.00 0.00 0.00 0.00 0.01 0.06 0.12 0.23 0.25 0.10 0.07 0.02 0.00 0.00 0.00 0.03 0.02
0.53 0.51 0.56 0.82 1.15 1.06 0.64 0.40 0.33 0.35 0.41 0.30 0.30 0.24 0.18 0.12 0.09 0.05 0.02 0.01 0.01 0.01 0.01 0.01 0.01 0.03 0.07 0.07 0.05 0.05 0.06 0.11 0.06 0.12 0.35 0.37 0.25 0.17 0.09 0.03 0.00 0.02 0.02
0.64 0.57 0.52 0.54 0.64 0.97 1.25 0.99 0.68 0.64 0.57 0.47 0.33 0.24 0.24 0.26 0.27 0.25 0.17 0.12 0.09 0.06 0.06 0.07 0.09 0.11 0.13 0.14 0.15 0.14 0.25 0.31 0.14 0.31 0.50 0.63 0.54 0.43 0.36 0.29 0.13 0.02 0.01
0.89 0.75 0.64 0.57 0.58 0.66 0.78 0.98 0.86 0.61 0.61 0.66 0.62 0.52 0.41 0.38 0.28 0.36 0.37 0.28 0.31 0.23 0.16 0.16 0.14 0.13 0.14 0.15 0.13 0.12 0.12 0.16 0.16 0.22 0.29 0.45 0.54 0.55 0.55 0.55 0.47 0.22 0.04
1.32 1.24 1.05 0.99 0.82 0.78 0.82 0.85 1.01 0.91 0.68 0.57 0.59 0.61 0.64 0.62 0.54 0.52 0.53 0.42 0.39 0.29 0.23 0.11 0.05 0.04 0.03 0.04 0.04 0.07 0.08 0.08 0.09 0.17 0.21 0.27 0.38 0.42 0.46 0.57 0.79 0.99 0.75
1.12 1.31 1.10 1.07 1.18 1.13 1.09 1.09 1.10 1.16 1.06 0.94 0.93 0.96 0.96 0.93 1.00 1.10 1.22 1.27 1.20 0.77 0.44 0.26 0.13 0.13 0.13 0.12 0.14 0.21 0.11 0.10 0.07 0.09 0.16 0.22 0.33 0.38 0.45 0.46 0.54 0.71 0.95
0.79 0.89 0.86 0.78 0.90 0.95 0.92 0.97 0.99 1.00 1.15 1.20 1.10 1.07 1.08 0.99 1.04 1.07 1.18 1.37 1.67 1.51 0.87 0.44 0.33 0.31 0.33 0.31 0.37 0.31 0.19 0.21 0.15 0.08 0.09 0.11 0.14 0.16 0.19 0.28 0.39 0.52 0.70
0.32 0.47 0.54 0.54 0.63 0.71 0.84 0.92 0.95 1.03 1.12 1.11 1.09 1.07 1.11 1.12 1.09 1.01 0.94 0.94 0.98 1.08 0.81 0.24 0.14 0.19 0.38 0.54 0.63 0.56 0.38 0.40 0.24 0.15 0.12 0.09 0.08 0.08 0.09 0.12 0.16 0.20 0.29
0.01 0.02 0.04 0.06 0.07 0.14 0.30 0.48 0.60 0.68 0.77 0.87 1.08 1.26 1.33 1.58 1.75 1.65 1.58 1.56 1.53 1.46 1.32 0.58 0.31 0.27 0.28 0.31 0.33 0.37 0.39 0.29 0.22 0.26 0.20 0.13 0.08 0.08 0.10 0.14 0.19 0.20 0.21
0.00 0.00 0.00 0.00 0.00 0.00 0.00 0.01 0.03 0.05 0.08 0.14 0.22 0.31 0.36 0.54 0.79 1.00 1.18 1.25 1.41 1.66 1.90 1.27 0.68 0.56 0.55 0.52 0.48 0.40 0.33 0.34 0.33 0.39 0.35 0.29 0.20 0.11 0.10 0.12 0.13 0.16 0.18
0.00 0.00 0.00 0.00 0.00 0.00 0.00 0.00 0.00 0.00 0.00 0.01 0.03 0.05 0.09 0.11 0.14 0.18 0.26 0.37 0.44 0.52 0.75 0.81 0.62 0.58 0.61 0.73 0.81 0.75 0.62 0.53 0.47 0.56 0.41 0.31 0.28 0.30 0.25 0.15 0.13 0.13 0.14
0.00 0.00 0.00 0.00 0.00 0.00 0.00 0.00 0.00 0.01 0.01 0.01 0.03 0.03 0.05 0.05 0.06 0.10 0.16 0.18 0.23 0.28 0.29 0.31 0.31 0.31 0.32 0.40 0.50 0.52 0.51 0.43 0.35 0.30 0.26 0.17 0.15 0.14 0.16 0.21 0.17 0.13 0.13
0.00 0.00 0.00 0.00 0.00 0.00 0.00 0.00 0.00 0.00 0.01 0.00 0.01 0.03 0.04 0.07 0.10 0.10 0.10 0.08 0.13 0.19 0.24 0.26 0.24 0.21 0.21 0.21 0.22 0.25 0.27 0.30 0.34 0.28 0.20 0.13 0.09 0.07 0.07 0.11 0.14 0.13 0.13
0.00 0.00 0.00 0.00 0.00 0.00 0.00 0.00 0.00 0.00 0.00 0.00 0.00 0.02 0.03 0.07 0.05 0.07 0.07 0.10 0.10 0.09 0.09 0.10 0.09 0.08 0.09 0.11 0.15 0.21 0.29 0.37 0.37 0.26 0.23 0.19 0.13 0.08 0.02 0.02 0.05 0.09 0.10
0.00 0.00 0.00 0.00 0.00 0.00 0.00 0.00 0.00 0.00 0.00 0.00 0.00 0.00 0.00 0.00 0.02 0.03 0.09 0.13 0.12 0.14 0.13 0.09 0.07 0.06 0.06 0.06 0.09 0.11 0.10 0.10 0.10 0.09 0.21 0.28 0.25 0.22 0.12 0.09 0.09 0.06 0.10
0.00 0.00 0.00 0.00 0.00 0.00 0.00 0.00 0.00 0.00 0.00 0.00 0.00 0.00 0.00 0.00 0.00 0.00 0.00 0.02 0.04 0.10 0.16 0.18 0.16 0.16 0.17 0.18 0.18 0.15 0.09 0.08 0.09 0.08 0.14 0.20 0.16 0.21 0.18 0.19 0.24 0.16 0.16
0.00 0.00 0.00 0.00 0.00 0.00 0.00 0.00 0.00 0.00 0.00 0.00 0.00 0.00 0.00 0.00 0.00 0.00 0.00 0.00 0.00 0.01 0.09 0.17 0.24 0.35 0.42 0.42 0.33 0.28 0.32 0.30 0.23 0.13 0.09 0.09 0.09 0.14 0.16 0.16 0.19 0.26 0.26
0.00 0.00 0.00 0.00 0.00 0.00 0.00 0.00 0.00 0.00 0.00 0.00 0.00 0.00 0.00 0.00 0.01 0.01 0.01 0.01 0.01 0.00 0.01 0.03 0.07 0.16 0.26 0.32 0.36 0.23 0.16 0.19 0.24 0.30 0.27 0.23 0.14 0.10 0.12 0.12 0.15 0.21 0.23